Loading…
Loading…
Loading…
Loading…
Loading parcel record…
Lawrence, NJ·Mercer County
Owner email, phone, and authorized agent are available on Pro.
| Date | Price | Book / Page | Verified by |
|---|---|---|---|
| 3/25/2025 | $2,000,000 | — | Recorded deed |
| 4/30/2020 | $6,000,000 | — | Recorded deed |
Activity captured from the county clerk's daily feed. Includes deeds, mortgages, and other recorded filings.
| Date |
|---|
| Type |
|---|
| Grantor |
|---|
| Grantee |
|---|
| Book / Page |
|---|
| Instrument |
|---|
| 2026-02-11 | DISCHARGE OF MORTGAGE | — | — | 1691 / 1764 | 2026005653 |
| 2025-12-15 | MORTGAGE | — | — | 12008 / 1397 | 2025045674 |
| 2025-12-15 | DEED | — | — | 6612 / 1867 | 2025045673 |
| 2025-09-16 | DEED | — | — | 6603 / 1463 | 2025033777 |
| 2025-07-28 | DEED | — | — | 6598 / 1761 | 2025027519 |
| 2025-04-09 | DEED | — | — | 6587 / 1447 | 2025013470 |
| 2023-05-26 | MORTGAGE | — | — | 11812 / 240 | 2023018991 |
| 2023-05-26 | DEED | — | — | 6524 / 831 | 2023018990 |
| 2022-06-17 | DEED | — | — | 6489 / 182 | 2022029362 |
| 2021-08-03 | DEED | — | — | 6450 / 1810 | 2021046555 |
| 2021-06-10 | MORTGAGE | — | — | 11627 / 342 | 2021035636 |
| 2021-06-10 | MORTGAGE | — | — | 11627 / 326 | 2021035635 |
| 2021-05-28 | ASSIGNMENT OF MORTGAGES | — | — | 1200 / 373 | 2021033474 |
| 2021-05-03 | MORTGAGE | — | — | 11610 / 1786 | 2021027706 |
| 2021-04-16 | DISCHARGE OF MORTGAGE | — | — | 1617 / 1491 | 2021023437 |
| 2021-02-19 | NOTICE OF LIS PENDENS | — | — | 431 / 846 | 2021009586 |
| 2020-08-17 | DEED | — | — | 6411 / 547 | 2020034601 |
| 2020-05-07 | DEED | — | — | 6403 / 515 | 2020019252 |
| 2020-05-06 | CONSTRUCTION LIEN CLAIM | — | — | 62 / 1123 | 2020019103 |
| 2020-04-03 | CONSTRUCTION LIEN CLAIM | — | — | 62 / 1028 | 2020015050 |
| 2019-04-10 | DEED | — | — | 6363 / 1249 | 2019014732 |
| 2019-01-16 | DEED | — | — | 6355 / 574 | 2019002259 |
| 2017-11-28 | DEED | — | — | 6308 / 952 | 2017054118 |
| 2017-01-27 | NOTICE OF LIS PENDENS | — | — | 419 / 248 | 2017004138 |
| 2015-11-23 | POWER OF ATTORNEY | — | — | 6234 / 1162 | 2015052539 |
| 2015-10-02 | DEED | — | — | 6230 / 370 | 2015045158 |
| 2015-04-09 | ASSIGNMENT OF MORTGAGES | — | — | 1170 / 61 | 2015015705 |
| 2015-01-08 | MORTGAGE | — | — | 11106 / 982 | 2015001024 |
| 2014-11-20 | DEED | — | — | 6206 / 1660 | 2014049135 |
| 2014-09-25 | DEED | — | — | 6203 / 78 | 2014040935 |